This demonstration page uses our WeatherBlox Daily Observations layout. Learn more.

Left ArrowRight Arrow

39.01783, -85.05884

Hourly Observations for February 20, 2019

Temp ( °F °C ) Dew Point ( °F °C ) Humidity (%) Winds ( mph kmh ) Pressure ( in mb ) Visibility ( mi km ) Precip ( " mm )
12:33 am 00:33 Cloudy 33 0.6 25 -3.9 72 72 ENE 12 19 30.32 1027 5 8 0.01 0.25
12:52 am 00:52 Cloudy 33 0.6 26 -3.3 75 75 ENE 10 17 30.29 1026 3 5 0.04 1.02
1:16 am 01:16 Cloudy 32 0 26 -3.3 79 79 ENE 10 17 30.30 1026 5 8 0.03 0.76
1:29 am 01:29 Cloudy with Light Freezing Rain 32 0 28 -2.2 85 85 NE 13 20 30.30 1026 4 6 0.06 1.52
1:52 am 01:52 Cloudy 32 0 28 -2.2 85 85 NE 14 22 30.24 1024 5 8 0.09 2.29
2:16 am 02:16 Cloudy 32 0 29 -1.7 88 88 ENE 14 22 30.25 1024 3 4 0.06 1.52
2:52 am 02:52 Cloudy with Freezing Rain 32 0 29 -1.7 88 88 ENE 15 24 30.18 1022 3 5 0.19 4.83
3:04 am 03:04 Cloudy with Light Freezing Rain 32 0 29 -1.7 88 88 ENE 13 20 30.20 1023 4 6 0.01 0.25
3:06 am 03:06 Cloudy with Freezing Rain 32 0 29 -1.7 88 88 ENE 14 22 30.20 1023 4 6 0.01 0.25
3:20 am 03:20 Cloudy with Freezing Rain 32 0 29 -1.7 88 88 ENE 15 24 30.17 1022 3 5 0.04 1.02
3:52 am 03:52 Cloudy with Freezing Rain 32 0 30 -1.1 92 92 ENE 14 22 30.11 1020 3 5 0.11 2.79
4:15 am 04:15 Cloudy with Mist and Fog 32 0 30 -1.1 92 92 E 16 26 30.11 1020 3 5 0.04 1.02
4:30 am 04:30 Cloudy with Thunderstorms 33 0.6 31 -0.6 92 92 E 14 22 30.10 1019 4 6 0.06 1.52
4:52 am 04:52 Cloudy with Light Rain 33 0.6 31 -0.6 92 92 ENE 15 24 30.05 1018 3 5 0.11 2.79
5:52 am 05:52 Cloudy with Heavy Rain 34 1.1 32 0 92 92 ESE 10 17 30.05 1018 3 4 0.22 5.59
6:14 am 06:14 Cloudy with Nearby Thunderstorms 34 1.1 32 0 92 92 ESE 12 19 30.07 1018 3 4 0.15 3.81
6:17 am 06:17 Cloudy with Heavy Rain 34 1.1 32 0 92 92 ESE 12 19 30.07 1018 3 5 0.17 4.32
6:52 am 06:52 Cloudy with Light Rain 34 1.1 32 0 92 92 ESE 18 30 29.98 1015 4 6 0.28 7.11
7:04 am 07:04 Cloudy with Light Rain 34 1.1 32 0 92 92 ESE 16 26 30.02 1017 5 8 0.02 0.51
7:28 am 07:28 Cloudy 35 1.7 32 0 89 89 ESE 12 19 30.02 1017 7 11 0.02 0.51
7:52 am 07:52 Cloudy 35 1.7 32 0 89 89 E 13 20 29.98 1015 8 13 0.02 0.51
8:52 am 08:52 Cloudy 36 2.2 34 1.1 93 93 ESE 12 19 29.98 1015 8 13 0.00 0.00
9:34 am 09:34 Cloudy with Mist and Fog 37 2.8 35 1.7 93 93 SE 10 17 30.02 1016 3 5 0.00 0.00
9:52 am 09:52 Cloudy with Light Rain 38 3.3 36 2.2 93 93 SE 8 13 29.98 1015 2 3 0.00 0.03
10:52 am 10:52 Cloudy with Light Rain 40 4.4 38 3.3 93 93 SE 13 20 29.95 1014 2 3 0.01 0.25
10:55 am 10:55 Cloudy with Light Rain 40 4.4 38 3.3 93 93 SE 12 19 29.97 1015 2 3 0.00 0.03
11:11 am 11:11 Cloudy with Drizzle 42 5.6 39 3.9 89 89 SE 15 24 29.96 1014 2 3 0.00 0.03
11:52 am 11:52 Cloudy with Mist and Fog 43 6.1 40 4.4 89 89 SE 15 24 29.92 1013 2 3 0.00 0.03
12:52 pm 12:52 Cloudy with Light Rain 44 6.7 42 5.6 93 93 SE 15 24 29.88 1012 2 3 0.01 0.25
1:52 pm 13:52 Cloudy with Light Rain 45 7.2 42 5.6 90 90 SSE 14 22 29.82 1010 2 3 0.00 0.03
2:15 pm 14:15 Cloudy 45 7.2 43 6.1 93 93 SSE 15 24 29.80 1009 7 11 0.01 0.25
2:32 pm 14:32 Cloudy with Heavy Rain 45 7.2 43 6.1 93 93 S 8 13 29.84 1011 3 4 0.01 0.25
2:42 pm 14:42 Cloudy with Rain 46 7.8 43 6.1 89 89 SSE 13 20 29.82 1010 4 6 0.08 2.03
2:52 pm 14:52 Cloudy with Light Rain 46 7.8 43 6.1 89 89 SSE 12 19 29.80 1009 8 13 0.10 2.54
3:47 pm 15:47 Cloudy with Drizzle 46 8 45 7 93 93 SSE 9 15 29.78 1008 2 3 0.03 0.76
3:52 pm 15:52 Cloudy with Light Rain 47 8.3 45 7.2 93 93 S 9 15 29.77 1008 2 3 0.03 0.76
4:01 pm 16:01 Cloudy with Rain 47 8.3 45 7.2 93 93 S 7 11 29.79 1009 1 2 0.01 0.25
4:11 pm 16:11 Cloudy with Rain 47 8.3 46 7.8 97 97 S 7 11 29.80 1009 2 3 0.06 1.52
4:52 pm 16:52 Cloudy with Light Rain 48 8.9 46 7.8 93 93 S 8 13 29.78 1008 2 3 0.17 4.32
5:08 pm 17:08 Cloudy with Light Rain 48 8.9 46 7.8 93 93 SSW 6 9 29.80 1009 2 3 0.01 0.25
5:24 pm 17:24 Cloudy with Light Rain 48 8.9 46 7.8 93 93 SSW 7 11 29.79 1009 2 3 0.02 0.51
5:33 pm 17:33 Cloudy with Light Rain 48 8.9 46 7.8 93 93 SSW 8 13 29.79 1009 1 2 0.03 0.76
5:52 pm 17:52 Cloudy with Light Rain 48 8.9 47 8.3 96 96 SSW 6 9 29.79 1009 1 2 0.05 1.27
6:23 pm 18:23 Cloudy with Drizzle 49 9.4 47 8.3 93 93 SSW 9 15 29.80 1009 2 3 0.04 1.02
6:52 pm 18:52 Cloudy with Drizzle 50 10 48 8.9 93 93 SW 10 17 29.82 1010 2 2 0.04 1.02
7:43 pm 19:43 Cloudy with Mist and Fog 50 10 48 8.9 93 93 WSW 10 17 29.85 1011 6 10 0.01 0.25
7:52 pm 19:52 Cloudy 50 10 48 8.9 93 93 WSW 13 20 29.84 1011 7 11 0.01 0.25
8:47 pm 20:47 Cloudy 48 9 46 8 94 94 W 15 24 29.87 1012 10 16 0.00 0.00
8:52 pm 20:52 Cloudy 49 9.4 46 7.8 90 90 WSW 13 20 29.86 1011 10 16 0.00 0.00
9:45 pm 21:45 Cloudy 47 8.3 41 5 80 80 W 13 20 29.92 1013 10 16 0.00 0.00
9:52 pm 21:52 Cloudy 47 8.3 41 5 80 80 W 12 19 29.91 1013 10 16 0.00 0.00
10:52 pm 22:52 Cloudy 45 7.2 38 3.3 77 77 W 10 17 29.95 1014 10 16 0.00 0.00
11:52 pm 23:52 Cloudy 43 6.1 35 1.7 74 74 W 17 28 29.98 1015 10 16 0.00 0.00

Powered by AerisWeather